Search for airport 
image banner adimage banner ad
image banner ad

DABC - Constantine / Mohamed Boudiaf

Located in Constantine, Algeria

ICAO - DABC, IATA - CZL

Data provided by Airmate  

General information

Coordinates: N36°17'7" E6°37'9"
Elevation is 2316 feet MSL.
 
View others Airports in Constantine Province

Operational data

Open for public use
Current time UTC:
Current local time:
Weather
METAR: DABC 230000Z 25008KT 9999 FEW033 17/07 Q1022
TAF: TAF DABC 222300Z 2300/2324 24008KT 9999 FEW033 SCT200 PROB40 2309/2324 FEW026TCU FEW030CB BECMG 2312/2314 32010KT PROB30 TEMPO 2318/2324 5000 -TSRA FEW026CB
View NOTAMs / SUP AIP / TFR affecting this airport [VIEW]
Communications frequencies: [VIEW]

Runways:

RWY identifierQFULength (ft)Width (ft)SurfaceLDA (ft)
16159°9843148
34339°9843148
13136°7874148
31316°7874148

Airport contact information

Address: Constantine Algeria

Satellite view of DABC